Time,TemperatureF,DewpointF,PressureIn,WindDirection,WindDirectionDegrees,WindSpeedMPH,WindSpeedGustMPH,Humidity,HourlyPrecipIn,Conditions,Clouds,dailyrainin,SoftwareType,DateUTC
2013-02-28 00:00:00,47.5,47.0,30.10,ESE,113,0.0,0.0,98,0.00,CLR,,0.06,WeatherDisplay:10.37,2013-02-28 08:00:00,
2013-02-28 00:05:00,47.5,47.0,30.10,ESE,113,0.0,0.0,98,0.00,RA,,0.00,WeatherDisplay:10.37,2013-02-28 08:05:00,
2013-02-28 00:10:00,47.5,47.0,30.10,ESE,113,0.0,0.0,98,0.00,RA,,0.00,WeatherDisplay:10.37,2013-02-28 08:10:00,
2013-02-28 00:15:00,47.6,47.1,30.10,ESE,113,0.0,0.0,98,0.00,CLR,,0.00,WeatherDisplay:10.37,2013-02-28 08:15:00,
2013-02-28 00:20:00,47.6,47.1,30.10,ESE,113,0.0,0.0,98,0.00,CLR,,0.00,WeatherDisplay:10.37,2013-02-28 08:20:00,
2013-02-28 00:25:00,47.7,47.2,30.10,ESE,113,0.0,0.0,98,0.00,CLR,,0.00,WeatherDisplay:10.37,2013-02-28 08:25:00,
2013-02-28 00:30:00,47.6,47.1,30.10,ESE,113,0.0,0.0,98,0.00,CLR,,0.00,WeatherDisplay:10.37,2013-02-28 08:30:00,
2013-02-28 00:35:00,47.6,47.1,30.10,ESE,113,0.0,0.0,98,0.00,CLR,,0.00,WeatherDisplay:10.37,2013-02-28 08:35:00,
2013-02-28 00:40:00,47.7,47.2,30.10,ESE,113,0.0,0.0,98,0.00,CLR,,0.00,WeatherDisplay:10.37,2013-02-28 08:40:00,
2013-02-28 00:45:00,47.7,47.2,30.10,ESE,113,0.0,0.0,98,0.00,CLR,,0.00,WeatherDisplay:10.37,2013-02-28 08:45:00,
2013-02-28 00:50:00,47.7,47.2,30.10,ESE,113,0.0,0.0,98,0.00,CLR,,0.00,WeatherDisplay:10.37,2013-02-28 08:50:00,
2013-02-28 00:55:00,47.7,47.2,30.10,ESE,113,0.0,0.0,98,0.00,CLR,,0.00,WeatherDisplay:10.37,2013-02-28 08:55:00,
2013-02-28 01:00:00,47.6,47.1,30.10,ESE,113,0.0,0.0,98,0.00,CLR,,0.00,WeatherDisplay:10.37,2013-02-28 09:00:00,
2013-02-28 01:05:00,47.7,47.2,30.09,ESE,113,0.0,0.0,98,0.00,CLR,,0.00,WeatherDisplay:10.37,2013-02-28 09:05:00,
2013-02-28 01:10:00,47.7,47.2,30.09,ESE,113,0.0,0.0,98,0.00,CLR,,0.00,WeatherDisplay:10.37,2013-02-28 09:10:00,
2013-02-28 01:15:00,47.8,47.3,30.09,ESE,113,0.0,0.0,98,0.00,CLR,,0.00,WeatherDisplay:10.37,2013-02-28 09:15:00,
2013-02-28 01:20:00,47.8,47.3,30.09,ESE,113,0.0,0.0,98,0.00,CLR,,0.00,WeatherDisplay:10.37,2013-02-28 09:20:00,
2013-02-28 01:25:00,47.9,47.4,30.09,ESE,113,0.0,0.0,98,0.00,CLR,,0.00,WeatherDisplay:10.37,2013-02-28 09:25:00,
2013-02-28 01:30:00,48.0,47.5,30.09,ESE,113,0.0,0.0,98,0.00,CLR,,0.00,WeatherDisplay:10.37,2013-02-28 09:30:00,
2013-02-28 01:35:00,48.1,47.5,30.09,ESE,113,0.0,0.0,98,0.00,CLR,CLR,0.00,WeatherDisplay:10.37,2013-02-28 09:35:00,
2013-02-28 01:40:00,48.1,47.3,30.09,ESE,113,0.0,0.0,97,0.00,CLR,,0.00,WeatherDisplay:10.37,2013-02-28 09:40:00,
2013-02-28 01:45:00,48.1,47.3,30.09,ESE,113,0.0,3.0,97,0.00,CLR,CLR,0.00,WeatherDisplay:10.37,2013-02-28 09:45:00,
2013-02-28 01:50:00,48.1,47.3,30.09,SSE,148,0.0,3.0,97,0.00,CLR,CLR,0.00,WeatherDisplay:10.37,2013-02-28 09:50:00,
2013-02-28 01:55:00,48.2,47.4,30.09,South,179,0.0,6.0,97,0.00,CLR,CLR,0.00,WeatherDisplay:10.37,2013-02-28 09:55:00,
2013-02-28 02:00:00,48.5,47.6,30.09,South,186,0.0,5.0,97,0.00,CLR,CLR,0.00,WeatherDisplay:10.37,2013-02-28 10:00:00,
2013-02-28 02:05:00,48.5,47.4,30.09,SSW,196,0.0,0.0,96,0.00,CLR,,0.00,WeatherDisplay:10.37,2013-02-28 10:05:00,
2013-02-28 02:10:00,48.5,47.4,30.09,SSW,196,0.0,0.0,96,0.00,CLR,,0.00,WeatherDisplay:10.37,2013-02-28 10:10:00,
2013-02-28 02:15:00,48.5,47.4,30.09,SSW,206,0.0,1.0,96,0.00,CLR,,0.00,WeatherDisplay:10.37,2013-02-28 10:15:00,
2013-02-28 02:20:00,48.7,47.6,30.09,South,180,1.0,5.0,96,0.00,CLR,CLR,0.00,WeatherDisplay:10.37,2013-02-28 10:20:00,
2013-02-28 02:25:00,48.8,47.7,30.09,SSW,192,4.6,4.6,96,0.00,CLR,,0.00,WeatherDisplay:10.37,2013-02-28 10:25:00,
2013-02-28 02:30:00,48.8,47.7,30.09,SSW,194,3.0,7.0,96,0.00,CLR,CLR,0.00,WeatherDisplay:10.37,2013-02-28 10:30:00,
2013-02-28 02:35:00,48.8,47.7,30.09,South,180,0.0,5.0,96,0.00,CLR,CLR,0.00,WeatherDisplay:10.37,2013-02-28 10:35:00,
2013-02-28 02:40:00,48.8,47.7,30.09,South,184,6.9,6.9,96,0.00,CLR,,0.00,WeatherDisplay:10.37,2013-02-28 10:40:00,
2013-02-28 02:45:00,49.0,47.9,30.09,SSW,210,8.1,8.1,96,0.00,CLR,,0.00,WeatherDisplay:10.37,2013-02-28 10:45:00,
2013-02-28 02:50:00,49.2,48.1,30.09,SSW,209,6.9,6.9,96,0.00,CLR,,0.00,WeatherDisplay:10.37,2013-02-28 10:50:00,
2013-02-28 02:55:00,49.3,48.2,30.09,South,190,2.0,8.0,96,0.00,CLR,CLR,0.00,WeatherDisplay:10.37,2013-02-28 10:55:00,
2013-02-28 03:00:00,49.4,48.0,30.09,South,187,7.0,13.0,95,0.00,CLR,CLR,0.00,WeatherDisplay:10.37,2013-02-28 11:00:00,
2013-02-28 03:05:00,49.6,48.2,30.08,SSW,199,10.4,10.4,95,0.00,CLR,,0.00,WeatherDisplay:10.37,2013-02-28 11:05:00,
2013-02-28 03:10:00,49.7,48.3,30.09,SSE,168,10.4,10.4,95,0.00,CLR,,0.00,WeatherDisplay:10.37,2013-02-28 11:10:00,
2013-02-28 03:15:00,49.8,48.4,30.09,SSW,206,10.4,10.4,95,0.00,CLR,,0.00,WeatherDisplay:10.37,2013-02-28 11:15:00,
2013-02-28 03:20:00,49.9,48.5,30.09,South,185,8.9,8.9,95,0.00,CLR,,0.00,WeatherDisplay:10.37,2013-02-28 11:20:00,
2013-02-28 03:25:00,49.9,48.5,30.09,SSE,168,8.1,8.1,95,0.00,CLR,,0.00,WeatherDisplay:10.37,2013-02-28 11:25:00,
2013-02-28 03:30:00,49.8,48.4,30.09,SW,219,9.2,9.2,95,0.00,CLR,,0.00,WeatherDisplay:10.37,2013-02-28 11:30:00,
2013-02-28 03:35:00,49.9,48.5,30.09,South,188,9.2,9.2,95,0.00,CLR,,0.00,WeatherDisplay:10.37,2013-02-28 11:35:00,
2013-02-28 03:40:00,49.9,48.5,30.09,South,191,10.4,10.4,95,0.00,CLR,,0.00,WeatherDisplay:10.37,2013-02-28 11:40:00,
2013-02-28 03:45:00,50.0,48.6,30.09,South,191,9.2,9.2,95,0.00,CLR,,0.00,WeatherDisplay:10.37,2013-02-28 11:45:00,
2013-02-28 03:50:00,50.0,48.6,30.09,SSW,196,9.2,9.2,95,0.00,CLR,,0.00,WeatherDisplay:10.37,2013-02-28 11:50:00,
2013-02-28 03:55:00,49.9,48.5,30.09,SSW,199,9.2,9.2,95,0.00,CLR,,0.00,WeatherDisplay:10.37,2013-02-28 11:55:00,
2013-02-28 04:00:00,50.0,48.6,30.09,South,182,9.2,9.2,95,0.00,CLR,,0.00,WeatherDisplay:10.37,2013-02-28 12:00:00,
2013-02-28 04:05:00,50.1,48.7,30.09,SSW,202,10.4,10.4,95,0.00,CLR,,0.00,WeatherDisplay:10.37,2013-02-28 12:05:00,
2013-02-28 04:10:00,50.0,48.6,30.09,SSE,158,12.5,12.5,95,0.00,CLR,,0.00,WeatherDisplay:10.37,2013-02-28 12:10:00,
2013-02-28 04:15:00,50.3,48.9,30.08,SSW,196,12.7,12.7,95,0.00,CLR,,0.00,WeatherDisplay:10.37,2013-02-28 12:15:00,
2013-02-28 04:20:00,50.4,49.0,30.09,SSW,203,11.5,11.5,95,0.00,CLR,,0.00,WeatherDisplay:10.37,2013-02-28 12:20:00,
2013-02-28 04:25:00,50.6,49.2,30.09,SSE,160,13.8,13.8,95,0.00,CLR,,0.00,WeatherDisplay:10.37,2013-02-28 12:25:00,
2013-02-28 04:30:00,50.6,49.2,30.09,South,189,8.1,8.1,95,0.00,CLR,,0.00,WeatherDisplay:10.37,2013-02-28 12:30:00,
2013-02-28 04:35:00,50.8,49.4,30.09,South,185,11.5,11.5,95,0.00,CLR,,0.00,WeatherDisplay:10.37,2013-02-28 12:35:00,
2013-02-28 04:40:00,50.7,49.3,30.09,South,188,10.4,10.4,95,0.00,CLR,,0.00,WeatherDisplay:10.37,2013-02-28 12:40:00,
2013-02-28 04:45:00,50.7,49.3,30.09,SSE,167,9.2,9.2,95,0.00,CLR,,0.00,WeatherDisplay:10.37,2013-02-28 12:45:00,
2013-02-28 04:50:00,50.8,49.4,30.09,South,172,9.2,9.2,95,0.00,CLR,,0.00,WeatherDisplay:10.37,2013-02-28 12:50:00,
2013-02-28 04:55:00,50.6,49.5,30.09,South,185,6.9,6.9,96,0.00,CLR,,0.00,WeatherDisplay:10.37,2013-02-28 12:55:00,
2013-02-28 05:00:00,50.8,49.7,30.09,SSW,203,6.9,6.9,96,0.00,CLR,,0.00,WeatherDisplay:10.37,2013-02-28 13:00:00,
2013-02-28 05:05:00,50.7,49.6,30.10,South,181,5.8,5.8,96,0.00,CLR,,0.00,WeatherDisplay:10.37,2013-02-28 13:05:00,
2013-02-28 05:10:00,50.8,49.7,30.10,SSW,205,6.9,6.9,96,0.00,CLR,,0.00,WeatherDisplay:10.37,2013-02-28 13:10:00,
2013-02-28 05:15:00,50.7,49.6,30.10,SSW,196,10.4,10.4,96,0.00,CLR,,0.00,WeatherDisplay:10.37,2013-02-28 13:15:00,
2013-02-28 05:20:00,50.9,49.8,30.10,South,178,6.9,6.9,96,0.00,CLR,,0.00,WeatherDisplay:10.37,2013-02-28 13:20:00,
2013-02-28 05:25:00,50.9,49.8,30.10,South,189,10.4,10.4,96,0.00,CLR,,0.00,WeatherDisplay:10.37,2013-02-28 13:25:00,
2013-02-28 05:30:00,51.0,49.9,30.11,SSW,199,9.2,9.2,96,0.00,CLR,,0.00,WeatherDisplay:10.37,2013-02-28 13:30:00,
2013-02-28 05:35:00,51.1,49.7,30.11,SSW,194,5.0,8.0,95,0.00,CLR,CLR,0.00,WeatherDisplay:10.37,2013-02-28 13:35:00,
2013-02-28 05:40:00,51.1,50.0,30.11,South,191,6.9,6.9,96,0.00,CLR,,0.00,WeatherDisplay:10.37,2013-02-28 13:40:00,
2013-02-28 05:45:00,51.1,49.7,30.11,SSE,168,6.9,6.9,95,0.00,CLR,,0.00,WeatherDisplay:10.37,2013-02-28 13:45:00,
2013-02-28 05:50:00,51.1,49.8,30.11,South,188,3.0,8.0,95,0.00,CLR,CLR,0.00,WeatherDisplay:10.37,2013-02-28 13:50:00,
2013-02-28 05:55:00,51.1,49.8,30.11,South,187,3.0,8.0,95,0.00,CLR,CLR,0.00,WeatherDisplay:10.37,2013-02-28 13:55:00,
2013-02-28 06:00:00,51.1,50.0,30.11,South,190,1.0,9.0,96,0.00,CLR,CLR,0.00,WeatherDisplay:10.37,2013-02-28 14:00:00,
2013-02-28 06:05:00,51.1,50.0,30.11,SSW,193,4.6,4.6,96,0.00,CLR,,0.00,WeatherDisplay:10.37,2013-02-28 14:05:00,
2013-02-28 06:10:00,51.1,50.0,30.11,South,182,5.0,8.0,96,0.00,CLR,CLR,0.00,WeatherDisplay:10.37,2013-02-28 14:10:00,
2013-02-28 06:15:00,51.3,49.9,30.11,SSW,193,10.1,10.1,95,0.00,CLR,,0.00,WeatherDisplay:10.37,2013-02-28 14:15:00,
2013-02-28 06:20:00,51.4,50.0,30.12,South,184,10.4,10.4,95,0.00,CLR,,0.00,WeatherDisplay:10.37,2013-02-28 14:20:00,
2013-02-28 06:25:00,51.5,50.2,30.12,South,190,5.0,10.0,95,0.00,CLR,CLR,0.00,WeatherDisplay:10.37,2013-02-28 14:25:00,
2013-02-28 06:30:00,51.6,50.2,30.12,South,179,8.1,8.1,95,0.00,CLR,,0.00,WeatherDisplay:10.37,2013-02-28 14:30:00,
2013-02-28 06:35:00,51.5,50.1,30.12,SSW,195,9.8,9.8,95,0.00,CLR,,0.00,WeatherDisplay:10.37,2013-02-28 14:35:00,
2013-02-28 06:40:00,51.6,50.2,30.12,South,181,6.0,6.0,95,0.00,CLR,,0.00,WeatherDisplay:10.37,2013-02-28 14:40:00,
2013-02-28 06:45:00,51.5,50.1,30.13,South,188,10.4,10.4,95,0.00,CLR,,0.00,WeatherDisplay:10.37,2013-02-28 14:45:00,
2013-02-28 06:50:00,51.6,50.2,30.13,SSW,195,8.1,8.1,95,0.00,CLR,,0.00,WeatherDisplay:10.37,2013-02-28 14:50:00,
2013-02-28 06:55:00,51.6,50.2,30.13,South,184,6.0,10.0,95,0.00,CLR,CLR,0.00,WeatherDisplay:10.37,2013-02-28 14:55:00,
2013-02-28 07:00:00,51.6,50.2,30.13,South,184,6.0,12.0,95,0.00,CLR,CLR,0.00,WeatherDisplay:10.37,2013-02-28 15:00:00,
2013-02-28 07:05:00,51.7,50.0,30.13,South,175,8.1,8.1,94,0.00,CLR,,0.00,WeatherDisplay:10.37,2013-02-28 15:05:00,
2013-02-28 07:10:00,51.7,50.0,30.13,SSW,210,6.9,6.9,94,0.00,CLR,,0.00,WeatherDisplay:10.37,2013-02-28 15:10:00,
2013-02-28 07:15:00,51.6,49.9,30.13,SSE,164,12.1,12.1,94,0.00,CLR,,0.00,WeatherDisplay:10.37,2013-02-28 15:15:00,
2013-02-28 07:20:00,51.6,49.9,30.13,South,188,6.0,12.0,94,0.00,CLR,CLR,0.00,WeatherDisplay:10.37,2013-02-28 15:20:00,
2013-02-28 07:25:00,51.6,49.9,30.13,South,186,6.0,12.0,94,0.00,CLR,CLR,0.00,WeatherDisplay:10.37,2013-02-28 15:25:00,
2013-02-28 07:30:00,51.5,50.1,30.14,South,181,13.8,13.8,95,0.00,CLR,,0.00,WeatherDisplay:10.37,2013-02-28 15:30:00,
2013-02-28 07:35:00,51.4,50.0,30.14,South,186,6.0,15.0,95,0.00,CLR,CLR,0.00,WeatherDisplay:10.37,2013-02-28 15:35:00,
2013-02-28 07:40:00,51.4,50.0,30.14,South,184,6.9,6.9,95,0.00,CLR,,0.00,WeatherDisplay:10.37,2013-02-28 15:40:00,
2013-02-28 07:45:00,51.4,50.0,30.14,South,185,6.0,11.0,95,0.00,CLR,CLR,0.00,WeatherDisplay:10.37,2013-02-28 15:45:00,
2013-02-28 07:50:00,51.5,50.4,30.14,SSW,193,9.3,9.3,96,0.00,CLR,,0.00,WeatherDisplay:10.37,2013-02-28 15:50:00,
2013-02-28 07:55:00,51.4,50.0,30.14,South,190,5.0,12.0,95,0.00,CLR,CLR,0.00,WeatherDisplay:10.37,2013-02-28 15:55:00,
2013-02-28 08:00:00,51.4,50.3,30.14,SSW,200,10.4,10.4,96,0.00,CLR,,0.00,WeatherDisplay:10.37,2013-02-28 16:00:00,
2013-02-28 08:05:00,51.3,50.2,30.14,SSW,206,12.7,12.7,96,0.00,CLR,,0.00,WeatherDisplay:10.37,2013-02-28 16:05:00,
2013-02-28 08:10:00,51.4,50.3,30.14,South,184,10.4,10.4,96,0.00,CLR,,0.00,WeatherDisplay:10.37,2013-02-28 16:10:00,
2013-02-28 08:15:00,51.4,50.3,30.14,South,187,7.0,13.0,96,0.00,CLR,CLR,0.00,WeatherDisplay:10.37,2013-02-28 16:15:00,
2013-02-28 08:20:00,51.4,50.0,30.15,South,172,10.4,10.4,95,0.00,CLR,,0.00,WeatherDisplay:10.37,2013-02-28 16:20:00,
2013-02-28 08:25:00,51.5,50.4,30.15,South,188,6.0,10.0,96,0.00,CLR,CLR,0.00,WeatherDisplay:10.37,2013-02-28 16:25:00,
2013-02-28 08:30:00,51.6,50.5,30.14,South,185,9.2,9.2,96,0.00,CLR,,0.00,WeatherDisplay:10.37,2013-02-28 16:30:00,
2013-02-28 08:35:00,51.6,50.5,30.15,South,188,10.3,10.3,96,0.00,CLR,,0.00,WeatherDisplay:10.37,2013-02-28 16:35:00,
2013-02-28 08:40:00,51.6,50.5,30.15,SSW,192,9.2,9.2,96,0.00,CLR,,0.00,WeatherDisplay:10.37,2013-02-28 16:40:00,
2013-02-28 08:45:00,51.7,50.6,30.15,South,188,6.0,10.0,96,0.00,CLR,CLR,0.00,WeatherDisplay:10.37,2013-02-28 16:45:00,
2013-02-28 08:50:00,51.8,50.7,30.16,SSW,195,8.1,8.1,96,0.00,CLR,,0.00,WeatherDisplay:10.37,2013-02-28 16:50:00,
2013-02-28 08:55:00,51.8,50.7,30.16,South,171,8.1,8.1,96,0.00,CLR,,0.00,WeatherDisplay:10.37,2013-02-28 16:55:00,
2013-02-28 09:00:00,51.9,50.8,30.16,SSE,164,6.9,6.9,96,0.00,CLR,,0.00,WeatherDisplay:10.37,2013-02-28 17:00:00,
2013-02-28 09:05:00,51.9,50.8,30.16,South,174,9.8,9.8,96,0.00,CLR,,0.00,WeatherDisplay:10.37,2013-02-28 17:05:00,
2013-02-28 09:10:00,52.0,50.9,30.17,South,189,9.2,9.2,96,0.00,CLR,,0.00,WeatherDisplay:10.37,2013-02-28 17:10:00,
2013-02-28 09:15:00,52.1,51.0,30.17,South,185,6.0,12.0,96,0.00,CLR,CLR,0.00,WeatherDisplay:10.37,2013-02-28 17:15:00,
2013-02-28 09:20:00,52.3,51.2,30.17,SSW,199,12.7,12.7,96,0.00,CLR,,0.00,WeatherDisplay:10.37,2013-02-28 17:20:00,
2013-02-28 09:25:00,52.3,51.2,30.17,South,188,10.4,10.4,96,0.00,CLR,,0.00,WeatherDisplay:10.37,2013-02-28 17:25:00,
2013-02-28 09:30:00,52.4,51.3,30.17,South,171,9.2,9.2,96,0.00,CLR,,0.00,WeatherDisplay:10.37,2013-02-28 17:30:00,
2013-02-28 09:35:00,52.4,51.3,30.17,South,176,9.2,9.2,96,0.00,CLR,,0.00,WeatherDisplay:10.37,2013-02-28 17:35:00,
2013-02-28 09:40:00,52.7,51.6,30.17,South,182,10.4,10.4,96,0.00,CLR,,0.00,WeatherDisplay:10.37,2013-02-28 17:40:00,
2013-02-28 09:45:00,52.8,51.7,30.17,SSW,195,9.0,9.0,96,0.00,CLR,,0.00,WeatherDisplay:10.37,2013-02-28 17:45:00,
2013-02-28 09:50:00,52.6,51.2,30.17,SSE,157,12.9,12.9,95,0.00,CLR,,0.00,WeatherDisplay:10.37,2013-02-28 17:50:00,
2013-02-28 09:55:00,52.8,51.7,30.17,South,182,5.0,13.0,96,0.00,CLR,CLR,0.00,WeatherDisplay:10.37,2013-02-28 17:55:00,
2013-02-28 10:00:00,52.9,51.8,30.18,SSW,208,5.8,5.8,96,0.00,CLR,,0.00,WeatherDisplay:10.37,2013-02-28 18:00:00,
2013-02-28 10:05:00,52.9,51.5,30.18,South,182,6.0,12.0,95,0.00,CLR,CLR,0.00,WeatherDisplay:10.37,2013-02-28 18:05:00,
2013-02-28 10:10:00,52.9,51.5,30.18,South,185,9.2,9.2,95,0.00,CLR,,0.00,WeatherDisplay:10.37,2013-02-28 18:10:00,
2013-02-28 10:15:00,53.0,51.9,30.18,SSE,161,15.0,15.0,96,0.00,CLR,,0.00,WeatherDisplay:10.37,2013-02-28 18:15:00,
2013-02-28 10:20:00,53.0,51.9,30.18,SSW,213,9.2,9.2,96,0.00,CLR,,0.00,WeatherDisplay:10.37,2013-02-28 18:20:00,
2013-02-28 10:25:00,53.1,52.0,30.18,South,183,6.0,10.0,96,0.00,CLR,CLR,0.00,WeatherDisplay:10.37,2013-02-28 18:25:00,
2013-02-28 10:30:00,53.2,52.1,30.19,South,183,6.0,11.0,96,0.00,CLR,CLR,0.00,WeatherDisplay:10.37,2013-02-28 18:30:00,
2013-02-28 10:35:00,53.4,52.0,30.19,South,185,6.9,6.9,95,0.00,CLR,,0.00,WeatherDisplay:10.37,2013-02-28 18:35:00,
2013-02-28 10:40:00,53.6,52.2,30.19,SSE,167,9.2,9.2,95,0.00,CLR,,0.00,WeatherDisplay:10.37,2013-02-28 18:40:00,
2013-02-28 10:45:00,53.8,52.4,30.19,South,183,6.0,12.0,95,0.00,CLR,CLR,0.00,WeatherDisplay:10.37,2013-02-28 18:45:00,
2013-02-28 10:50:00,53.7,52.3,30.19,SSW,199,11.5,11.5,95,0.00,CLR,,0.00,WeatherDisplay:10.37,2013-02-28 18:50:00,
2013-02-28 10:55:00,53.7,52.3,30.19,SSW,195,10.4,10.4,95,0.00,CLR,,0.00,WeatherDisplay:10.37,2013-02-28 18:55:00,
2013-02-28 11:00:00,53.9,52.5,30.19,SSE,168,10.4,10.4,95,0.00,CLR,,0.00,WeatherDisplay:10.37,2013-02-28 19:00:00,
2013-02-28 11:05:00,53.9,52.5,30.19,South,186,6.0,14.0,95,0.00,CLR,CLR,0.00,WeatherDisplay:10.37,2013-02-28 19:05:00,
2013-02-28 11:10:00,54.0,52.6,30.19,SSW,206,12.7,12.7,95,0.00,CLR,,0.00,WeatherDisplay:10.37,2013-02-28 19:10:00,
2013-02-28 11:15:00,54.0,52.6,30.19,South,177,6.0,12.0,95,0.00,CLR,CLR,0.00,WeatherDisplay:10.37,2013-02-28 19:15:00,
2013-02-28 11:20:00,54.2,52.8,30.19,South,176,8.0,13.0,95,0.00,CLR,CLR,0.00,WeatherDisplay:10.37,2013-02-28 19:20:00,
2013-02-28 11:25:00,54.5,53.1,30.19,SW,217,10.4,10.4,95,0.00,CLR,,0.00,WeatherDisplay:10.37,2013-02-28 19:25:00,
2013-02-28 11:30:00,54.6,52.9,30.20,SSW,196,10.6,10.6,94,0.00,CLR,,0.00,WeatherDisplay:10.37,2013-02-28 19:30:00,
2013-02-28 11:35:00,55.1,53.7,30.20,SSE,158,8.1,8.1,95,0.00,CLR,,0.00,WeatherDisplay:10.37,2013-02-28 19:35:00,
2013-02-28 11:40:00,55.3,53.3,30.20,SSW,199,9.2,9.2,93,0.00,CLR,,0.00,WeatherDisplay:10.37,2013-02-28 19:40:00,
2013-02-28 11:45:00,55.5,53.8,30.20,South,185,10.4,10.4,94,0.00,CLR,,0.00,WeatherDisplay:10.37,2013-02-28 19:45:00,
2013-02-28 11:50:00,55.6,53.6,30.20,SSW,192,15.0,15.0,93,0.00,CLR,,0.00,WeatherDisplay:10.37,2013-02-28 19:50:00,
2013-02-28 11:55:00,55.8,53.8,30.20,SSW,198,9.6,9.6,93,0.00,CLR,,0.00,WeatherDisplay:10.37,2013-02-28 19:55:00,
2013-02-28 12:00:00,56.2,53.9,30.20,South,174,13.2,13.2,92,0.00,CLR,,0.00,WeatherDisplay:10.37,2013-02-28 20:00:00,
2013-02-28 12:05:00,56.4,54.4,30.20,SSW,203,11.5,11.5,93,0.00,CLR,,0.00,WeatherDisplay:10.37,2013-02-28 20:05:00,
2013-02-28 12:10:00,56.9,54.6,30.20,SSW,196,9.2,9.2,92,0.00,CLR,,0.00,WeatherDisplay:10.37,2013-02-28 20:10:00,
2013-02-28 12:15:00,57.1,54.8,30.21,SSE,164,12.7,12.7,92,0.00,CLR,,0.00,WeatherDisplay:10.37,2013-02-28 20:15:00,
2013-02-28 12:20:00,57.1,54.2,30.21,SSW,199,13.8,13.8,90,0.00,CLR,,0.00,WeatherDisplay:10.37,2013-02-28 20:20:00,
2013-02-28 12:25:00,56.5,53.9,30.21,South,189,12.7,12.7,91,0.00,CLR,,0.00,WeatherDisplay:10.37,2013-02-28 20:25:00,
2013-02-28 12:30:00,56.7,54.4,30.21,South,185,9.2,9.2,92,0.00,CLR,,0.00,WeatherDisplay:10.37,2013-02-28 20:30:00,
2013-02-28 12:35:00,56.8,54.2,30.21,SSE,158,12.7,12.7,91,0.00,CLR,,0.00,WeatherDisplay:10.37,2013-02-28 20:35:00,
2013-02-28 12:40:00,56.7,53.8,30.21,SSE,167,13.8,13.8,90,0.00,CLR,,0.00,WeatherDisplay:10.37,2013-02-28 20:40:00,
2013-02-28 12:45:00,56.4,53.8,30.21,SSE,161,13.8,13.8,91,0.00,CLR,,0.00,WeatherDisplay:10.37,2013-02-28 20:45:00,
2013-02-28 12:50:00,56.7,54.4,30.21,South,174,13.0,13.0,92,0.00,CLR,,0.00,WeatherDisplay:10.37,2013-02-28 20:50:00,
2013-02-28 12:55:00,56.8,54.5,30.21,SSW,199,9.2,9.2,92,0.00,CLR,,0.00,WeatherDisplay:10.37,2013-02-28 20:55:00,
2013-02-28 13:00:00,56.8,53.9,30.21,SW,215,9.2,9.2,90,0.00,CLR,,0.00,WeatherDisplay:10.37,2013-02-28 21:00:00,
2013-02-28 13:05:00,57.0,54.4,30.21,SSW,196,9.8,9.8,91,0.00,CLR,,0.00,WeatherDisplay:10.37,2013-02-28 21:05:00,
2013-02-28 13:10:00,57.3,54.7,30.20,South,171,11.5,11.5,91,0.00,CLR,,0.00,WeatherDisplay:10.37,2013-02-28 21:10:00,
2013-02-28 13:15:00,57.6,54.7,30.20,SSE,155,12.7,12.7,90,0.00,CLR,,0.00,WeatherDisplay:10.37,2013-02-28 21:15:00,
2013-02-28 13:20:00,57.8,54.9,30.20,SSW,193,9.2,9.2,90,0.00,CLR,,0.00,WeatherDisplay:10.37,2013-02-28 21:20:00,
2013-02-28 13:25:00,57.6,54.4,30.20,SSW,192,13.8,13.8,89,0.00,CLR,,0.00,WeatherDisplay:10.37,2013-02-28 21:25:00,
2013-02-28 13:30:00,57.5,54.3,30.20,SSE,154,16.1,16.1,89,0.00,CLR,,0.00,WeatherDisplay:10.37,2013-02-28 21:30:00,
2013-02-28 13:35:00,57.7,54.8,30.20,South,185,8.1,8.1,90,0.00,CLR,,0.00,WeatherDisplay:10.37,2013-02-28 21:35:00,
2013-02-28 13:40:00,57.7,54.8,30.20,South,185,9.2,9.2,90,0.00,CLR,,0.00,WeatherDisplay:10.37,2013-02-28 21:40:00,
2013-02-28 13:45:00,57.6,54.7,30.20,South,184,6.0,13.0,90,0.00,CLR,CLR,0.00,WeatherDisplay:10.37,2013-02-28 21:45:00,
2013-02-28 13:50:00,57.5,54.3,30.20,South,191,13.1,13.1,89,0.00,CLR,,0.00,WeatherDisplay:10.37,2013-02-28 21:50:00,
2013-02-28 13:55:00,57.2,54.3,30.21,SSW,202,13.8,13.8,90,0.00,CLR,,0.00,WeatherDisplay:10.37,2013-02-28 21:55:00,
2013-02-28 14:00:00,57.2,54.3,30.21,SSW,193,8.1,8.1,90,0.00,CLR,,0.00,WeatherDisplay:10.37,2013-02-28 22:00:00,
2013-02-28 14:05:00,57.3,55.0,30.21,South,182,10.4,10.4,92,0.00,CLR,,0.00,WeatherDisplay:10.37,2013-02-28 22:05:00,
2013-02-28 14:10:00,57.2,54.3,30.20,South,187,7.0,10.0,90,0.00,CLR,CLR,0.00,WeatherDisplay:10.37,2013-02-28 22:10:00,
2013-02-28 14:15:00,57.2,54.6,30.21,SSW,193,8.1,8.1,91,0.00,CLR,,0.00,WeatherDisplay:10.37,2013-02-28 22:15:00,
2013-02-28 14:20:00,57.2,54.3,30.21,South,187,7.0,12.0,90,0.00,CLR,CLR,0.00,WeatherDisplay:10.37,2013-02-28 22:20:00,
2013-02-28 14:25:00,57.3,54.4,30.21,South,181,5.8,6.2,90,0.00,CLR,,0.00,WeatherDisplay:10.37,2013-02-28 22:25:00,
2013-02-28 14:30:00,57.6,54.7,30.21,SSW,198,8.1,8.1,90,0.00,CLR,,0.00,WeatherDisplay:10.37,2013-02-28 22:30:00,
2013-02-28 14:35:00,57.5,54.6,30.22,SSW,199,9.9,9.9,90,0.00,CLR,,0.00,WeatherDisplay:10.37,2013-02-28 22:35:00,
2013-02-28 14:40:00,57.2,54.9,30.22,SSE,157,12.7,12.7,92,0.00,CLR,,0.00,WeatherDisplay:10.37,2013-02-28 22:40:00,
2013-02-28 14:45:00,56.8,55.1,30.22,South,190,7.0,12.0,94,0.00,CLR,CLR,0.00,WeatherDisplay:10.37,2013-02-28 22:45:00,
2013-02-28 14:50:00,56.7,55.2,30.22,South,188,5.0,9.0,95,0.00,CLR,CLR,0.00,WeatherDisplay:10.37,2013-02-28 22:50:00,
2013-02-28 14:55:00,56.5,54.5,30.22,SSW,195,13.8,13.8,93,0.00,CLR,,0.00,WeatherDisplay:10.37,2013-02-28 22:55:00,
2013-02-28 15:00:00,56.5,54.5,30.22,South,188,7.0,12.0,93,0.00,CLR,CLR,0.00,WeatherDisplay:10.37,2013-02-28 23:00:00,
2013-02-28 15:05:00,56.6,54.6,30.22,South,186,5.0,10.0,93,0.00,CLR,CLR,0.00,WeatherDisplay:10.37,2013-02-28 23:05:00,
2013-02-28 15:10:00,56.8,54.8,30.22,SSW,199,6.9,6.9,93,0.00,CLR,,0.00,WeatherDisplay:10.37,2013-02-28 23:10:00,
2013-02-28 15:15:00,56.8,54.8,30.22,South,179,5.8,5.8,93,0.00,CLR,,0.00,WeatherDisplay:10.37,2013-02-28 23:15:00,
2013-02-28 15:20:00,57.0,54.7,30.23,South,191,5.0,9.0,92,0.00,CLR,CLR,0.00,WeatherDisplay:10.37,2013-02-28 23:20:00,
2013-02-28 15:25:00,57.1,54.8,30.23,South,191,6.0,12.0,92,0.00,CLR,CLR,0.00,WeatherDisplay:10.37,2013-02-28 23:25:00,
2013-02-28 15:30:00,57.3,54.4,30.23,SSE,147,8.1,8.1,90,0.00,CLR,,0.00,WeatherDisplay:10.37,2013-02-28 23:30:00,
2013-02-28 15:35:00,57.4,54.5,30.23,South,174,9.2,9.2,90,0.00,CLR,,0.00,WeatherDisplay:10.37,2013-02-28 23:35:00,
2013-02-28 15:40:00,57.4,54.5,30.22,South,188,10.4,10.4,90,0.00,CLR,,0.00,WeatherDisplay:10.37,2013-02-28 23:40:00,
2013-02-28 15:45:00,57.3,54.7,30.23,SSW,193,9.2,9.2,91,0.00,CLR,,0.00,WeatherDisplay:10.37,2013-02-28 23:45:00,
2013-02-28 15:50:00,57.3,54.4,30.22,SSW,195,6.9,6.9,90,0.00,CLR,,0.00,WeatherDisplay:10.37,2013-02-28 23:50:00,
2013-02-28 15:55:00,57.3,54.7,30.23,South,190,2.0,9.0,91,0.00,CLR,CLR,0.00,WeatherDisplay:10.37,2013-02-28 23:55:00,
2013-02-28 16:00:00,57.3,54.7,30.23,SSE,154,8.1,8.1,91,0.00,CLR,,0.00,WeatherDisplay:10.37,2013-03-01 00:00:00,
2013-02-28 16:05:00,57.4,54.8,30.23,SSW,203,4.6,4.6,91,0.00,CLR,,0.00,WeatherDisplay:10.37,2013-03-01 00:05:00,
2013-02-28 16:10:00,57.4,54.8,30.24,South,189,6.9,6.9,91,0.00,CLR,,0.00,WeatherDisplay:10.37,2013-03-01 00:10:00,
2013-02-28 16:15:00,57.3,54.7,30.24,South,188,2.0,6.0,91,0.00,CLR,CLR,0.00,WeatherDisplay:10.37,2013-03-01 00:15:00,
2013-02-28 16:20:00,57.3,54.6,30.24,South,187,5.0,9.0,91,0.00,CLR,CLR,0.00,WeatherDisplay:10.37,2013-03-01 00:20:00,
2013-02-28 16:25:00,57.3,54.1,30.24,SSW,197,0.0,8.0,89,0.00,CLR,CLR,0.00,WeatherDisplay:10.37,2013-03-01 00:25:00,
2013-02-28 16:30:00,57.2,53.7,30.24,SSW,195,6.9,6.9,88,0.00,CLR,,0.00,WeatherDisplay:10.37,2013-03-01 00:30:00,
2013-02-28 16:35:00,57.1,54.2,30.25,SSW,210,4.4,4.4,90,0.00,CLR,,0.00,WeatherDisplay:10.37,2013-03-01 00:35:00,
2013-02-28 16:40:00,57.0,54.4,30.25,South,175,5.8,5.8,91,0.00,CLR,,0.00,WeatherDisplay:10.37,2013-03-01 00:40:00,
2013-02-28 16:45:00,56.9,54.0,30.25,SSW,192,2.0,7.0,90,0.00,CLR,CLR,0.00,WeatherDisplay:10.37,2013-03-01 00:45:00,
2013-02-28 16:50:00,56.6,53.4,30.25,South,191,6.9,6.9,89,0.00,CLR,,0.00,WeatherDisplay:10.37,2013-03-01 00:50:00,
2013-02-28 16:55:00,56.6,53.7,30.25,SSW,197,3.0,9.0,90,0.00,CLR,CLR,0.00,WeatherDisplay:10.37,2013-03-01 00:55:00,
2013-02-28 17:00:00,56.2,53.3,30.25,SSW,203,3.5,3.5,90,0.00,CLR,,0.00,WeatherDisplay:10.37,2013-03-01 01:00:00,
2013-02-28 17:05:00,56.1,53.5,30.25,SSW,204,1.0,6.0,91,0.00,CLR,CLR,0.00,WeatherDisplay:10.37,2013-03-01 01:05:00,
2013-02-28 17:10:00,56.0,53.4,30.25,SSW,198,5.8,5.8,91,0.00,CLR,,0.00,WeatherDisplay:10.37,2013-03-01 01:10:00,
2013-02-28 17:15:00,56.0,53.1,30.25,South,171,6.9,6.9,90,0.00,CLR,,0.00,WeatherDisplay:10.37,2013-03-01 01:15:00,
2013-02-28 17:20:00,56.0,53.4,30.25,SW,234,5.8,5.8,91,0.00,CLR,,0.00,WeatherDisplay:10.37,2013-03-01 01:20:00,
2013-02-28 17:25:00,55.9,53.3,30.25,South,181,4.6,4.6,91,0.00,CLR,,0.00,WeatherDisplay:10.37,2013-03-01 01:25:00,
2013-02-28 17:30:00,55.9,53.0,30.25,South,188,5.8,5.8,90,0.00,CLR,,0.00,WeatherDisplay:10.37,2013-03-01 01:30:00,
2013-02-28 17:35:00,55.9,53.0,30.25,South,175,5.8,5.8,90,0.00,CLR,,0.00,WeatherDisplay:10.37,2013-03-01 01:35:00,
2013-02-28 17:40:00,55.9,52.4,30.25,South,175,12.7,12.7,88,0.00,CLR,,0.00,WeatherDisplay:10.37,2013-03-01 01:40:00,
2013-02-28 17:45:00,56.0,52.8,30.26,SSW,195,8.1,8.1,89,0.00,CLR,,0.00,WeatherDisplay:10.37,2013-03-01 01:45:00,
2013-02-28 17:50:00,56.0,52.8,30.26,SSW,192,10.4,10.4,89,0.00,CLR,,0.00,WeatherDisplay:10.37,2013-03-01 01:50:00,
2013-02-28 17:55:00,55.9,52.7,30.26,SSW,205,4.6,4.6,89,0.00,CLR,,0.00,WeatherDisplay:10.37,2013-03-01 01:55:00,
2013-02-28 18:00:00,55.7,52.5,30.26,SSE,160,6.9,6.9,89,0.00,CLR,,0.00,WeatherDisplay:10.37,2013-03-01 02:00:00,
2013-02-28 18:05:00,55.7,52.2,30.26,SSE,157,8.1,8.1,88,0.00,CLR,,0.00,WeatherDisplay:10.37,2013-03-01 02:05:00,
2013-02-28 18:10:00,55.6,52.1,30.26,SSE,167,8.1,8.1,88,0.00,CLR,,0.00,WeatherDisplay:10.37,2013-03-01 02:10:00,
2013-02-28 18:15:00,55.5,52.3,30.26,South,190,6.0,13.0,89,0.00,CLR,CLR,0.00,WeatherDisplay:10.37,2013-03-01 02:15:00,
2013-02-28 18:20:00,55.3,52.1,30.26,SSW,205,9.2,9.2,89,0.00,CLR,,0.00,WeatherDisplay:10.37,2013-03-01 02:20:00,
2013-02-28 18:25:00,55.2,52.3,30.26,South,174,6.9,6.9,90,0.00,CLR,,0.00,WeatherDisplay:10.37,2013-03-01 02:25:00,
2013-02-28 18:30:00,55.2,52.3,30.26,South,174,4.7,4.7,90,0.00,CLR,,0.00,WeatherDisplay:10.37,2013-03-01 02:30:00,
2013-02-28 18:35:00,54.8,52.2,30.27,South,189,4.6,4.6,91,0.00,CLR,,0.00,WeatherDisplay:10.37,2013-03-01 02:35:00,
2013-02-28 18:40:00,54.7,52.1,30.27,SSE,161,4.8,4.8,91,0.00,CLR,,0.00,WeatherDisplay:10.37,2013-03-01 02:40:00,
2013-02-28 18:45:00,54.6,52.3,30.27,SE,143,3.5,3.5,92,0.00,CLR,,0.00,WeatherDisplay:10.37,2013-03-01 02:45:00,
2013-02-28 18:50:00,54.2,52.2,30.27,SSE,152,1.2,1.2,93,0.00,CLR,,0.00,WeatherDisplay:10.37,2013-03-01 02:50:00,
2013-02-28 18:55:00,54.0,52.3,30.27,South,186,0.0,0.0,94,0.00,CLR,,0.00,WeatherDisplay:10.37,2013-03-01 02:55:00,
2013-02-28 19:00:00,53.6,52.2,30.27,South,185,2.3,2.3,95,0.00,CLR,,0.00,WeatherDisplay:10.37,2013-03-01 03:00:00,
2013-02-28 19:05:00,53.5,52.1,30.27,South,181,2.3,2.3,95,0.00,CLR,,0.00,WeatherDisplay:10.37,2013-03-01 03:05:00,
2013-02-28 19:10:00,53.6,52.2,30.28,South,181,0.0,0.0,95,0.00,CLR,,0.00,WeatherDisplay:10.37,2013-03-01 03:10:00,
2013-02-28 19:15:00,53.6,52.2,30.28,South,181,0.0,0.0,95,0.00,CLR,,0.00,WeatherDisplay:10.37,2013-03-01 03:15:00,
2013-02-28 19:20:00,53.6,52.2,30.28,South,181,0.0,0.0,95,0.00,CLR,,0.00,WeatherDisplay:10.37,2013-03-01 03:20:00,
2013-02-28 19:25:00,53.5,52.4,30.28,South,181,0.0,0.0,96,0.00,CLR,,0.00,WeatherDisplay:10.37,2013-03-01 03:25:00,
2013-02-28 19:30:00,53.3,52.2,30.28,SE,134,3.0,3.0,96,0.00,CLR,,0.00,WeatherDisplay:10.37,2013-03-01 03:30:00,
2013-02-28 19:35:00,53.1,52.0,30.28,ESE,103,3.5,3.5,96,0.00,CLR,,0.00,WeatherDisplay:10.37,2013-03-01 03:35:00,
2013-02-28 19:40:00,53.1,52.0,30.29,SE,137,0.0,0.0,96,0.00,CLR,,0.00,WeatherDisplay:10.37,2013-03-01 03:40:00,
2013-02-28 19:45:00,53.3,52.2,30.29,SE,137,0.0,0.0,96,0.00,CLR,,0.00,WeatherDisplay:10.37,2013-03-01 03:45:00,
2013-02-28 19:50:00,53.3,52.2,30.29,SE,137,0.0,0.0,96,0.00,CLR,,0.00,WeatherDisplay:10.37,2013-03-01 03:50:00,
2013-02-28 19:55:00,53.5,52.4,30.29,SSE,168,2.3,2.3,96,0.00,CLR,,0.00,WeatherDisplay:10.37,2013-03-01 03:55:00,
2013-02-28 20:00:00,53.8,52.7,30.29,SE,145,0.0,0.0,96,0.00,CLR,,0.00,WeatherDisplay:10.37,2013-03-01 04:00:00,
2013-02-28 20:05:00,53.9,52.5,30.29,SE,145,0.0,0.0,95,0.00,CLR,,0.00,WeatherDisplay:10.37,2013-03-01 04:05:00,
2013-02-28 20:10:00,54.0,52.6,30.30,SE,145,0.0,0.0,95,0.00,CLR,,0.00,WeatherDisplay:10.37,2013-03-01 04:10:00,
2013-02-28 20:15:00,53.9,52.5,30.30,SE,145,0.0,0.0,95,0.00,CLR,,0.00,WeatherDisplay:10.37,2013-03-01 04:15:00,
2013-02-28 20:20:00,53.8,52.4,30.30,SE,145,0.0,0.0,95,0.00,CLR,,0.00,WeatherDisplay:10.37,2013-03-01 04:20:00,
2013-02-28 20:25:00,53.8,52.4,30.30,South,184,2.3,2.3,95,0.00,CLR,,0.00,WeatherDisplay:10.37,2013-03-01 04:25:00,
2013-02-28 20:30:00,53.9,52.5,30.30,SSW,208,5.8,5.8,95,0.00,CLR,,0.00,WeatherDisplay:10.37,2013-03-01 04:30:00,
2013-02-28 20:35:00,54.1,52.7,30.30,SSW,202,4.6,4.6,95,0.00,CLR,,0.00,WeatherDisplay:10.37,2013-03-01 04:35:00,
2013-02-28 20:40:00,54.1,52.7,30.30,SSW,195,5.7,5.7,95,0.00,CLR,,0.00,WeatherDisplay:10.37,2013-03-01 04:40:00,
2013-02-28 20:45:00,54.2,52.8,30.30,South,169,2.9,2.9,95,0.00,CLR,,0.00,WeatherDisplay:10.37,2013-03-01 04:45:00,
2013-02-28 20:50:00,54.2,52.8,30.30,SSW,195,3.5,3.5,95,0.00,CLR,,0.00,WeatherDisplay:10.37,2013-03-01 04:50:00,
2013-02-28 20:55:00,54.0,52.6,30.30,South,178,5.5,5.5,95,0.00,CLR,,0.00,WeatherDisplay:10.37,2013-03-01 04:55:00,
2013-02-28 21:00:00,54.1,52.7,30.30,SSW,196,5.8,5.8,95,0.00,CLR,,0.00,WeatherDisplay:10.37,2013-03-01 05:00:00,
2013-02-28 21:05:00,54.0,52.6,30.30,SSW,199,3.5,3.5,95,0.00,CLR,,0.00,WeatherDisplay:10.37,2013-03-01 05:05:00,
2013-02-28 21:06:00,54.0,52.6,30.30,South,179,4.6,4.6,95,0.00,CLR,,0.00,WeatherDisplay:10.37,2013-03-01 05:06:00,
2013-02-28 21:11:00,53.9,52.5,30.30,SSW,196,3.5,3.5,95,0.00,CLR,,0.00,WeatherDisplay:10.37,2013-03-01 05:11:00,
2013-02-28 21:16:00,53.8,52.7,30.30,SSW,202,5.8,5.8,96,0.00,CLR,,0.00,WeatherDisplay:10.37,2013-03-01 05:16:00,
2013-02-28 21:21:00,53.7,52.6,30.30,SSW,193,3.5,3.5,96,0.00,CLR,,0.00,WeatherDisplay:10.37,2013-03-01 05:21:00,
2013-02-28 21:26:00,53.6,52.5,30.30,South,172,3.5,3.5,96,0.00,CLR,,0.00,WeatherDisplay:10.37,2013-03-01 05:26:00,
2013-02-28 21:31:00,53.6,52.5,30.30,South,189,3.5,3.5,96,0.00,CLR,,0.00,WeatherDisplay:10.37,2013-03-01 05:31:00,
2013-02-28 21:36:00,53.5,52.4,30.30,SSW,193,0.0,0.0,96,0.00,CLR,,0.00,WeatherDisplay:10.37,2013-03-01 05:36:00,
2013-02-28 21:41:00,53.4,52.3,30.31,South,171,0.0,0.0,96,0.00,CLR,,0.00,WeatherDisplay:10.37,2013-03-01 05:41:00,
2013-02-28 21:46:00,53.2,52.1,30.31,SSW,199,3.5,3.5,96,0.00,CLR,,0.00,WeatherDisplay:10.37,2013-03-01 05:46:00,
2013-02-28 21:51:00,53.1,52.0,30.31,SSW,196,3.5,3.5,96,0.00,CLR,,0.00,WeatherDisplay:10.37,2013-03-01 05:51:00,
2013-02-28 21:56:00,52.9,51.8,30.31,South,178,1.2,0.0,96,0.00,CLR,,0.00,WeatherDisplay:10.37,2013-03-01 05:56:00,
2013-02-28 22:01:00,52.7,51.6,30.32,South,188,3.5,3.5,96,0.00,CLR,,0.00,WeatherDisplay:10.37,2013-03-01 06:01:00,
2013-02-28 22:06:00,52.7,51.6,30.32,SSW,193,0.0,0.0,96,0.00,CLR,,0.00,WeatherDisplay:10.37,2013-03-01 06:06:00,
2013-02-28 22:11:00,52.6,51.5,30.32,SSE,167,1.2,0.0,96,0.00,CLR,,0.00,WeatherDisplay:10.37,2013-03-01 06:11:00,
2013-02-28 22:16:00,52.6,51.5,30.32,SSW,196,0.0,0.0,96,0.00,CLR,,0.00,WeatherDisplay:10.37,2013-03-01 06:16:00,
2013-02-28 22:21:00,52.6,51.5,30.32,SSW,192,0.0,0.0,96,0.00,CLR,,0.00,WeatherDisplay:10.37,2013-03-01 06:21:00,
2013-02-28 22:26:00,52.8,51.7,30.32,SSW,192,1.2,0.0,96,0.00,CLR,,0.00,WeatherDisplay:10.37,2013-03-01 06:26:00,
2013-02-28 22:31:00,52.7,51.6,30.32,South,181,4.6,4.6,96,0.00,CLR,,0.00,WeatherDisplay:10.37,2013-03-01 06:31:00,
2013-02-28 22:36:00,52.7,51.6,30.32,SSE,165,0.0,0.0,96,0.00,CLR,,0.00,WeatherDisplay:10.37,2013-03-01 06:36:00,
2013-02-28 22:41:00,52.7,51.9,30.32,South,191,3.5,3.5,97,0.00,CLR,,0.00,WeatherDisplay:10.37,2013-03-01 06:41:00,
2013-02-28 22:46:00,52.7,51.9,30.32,South,175,5.8,5.8,97,0.00,CLR,,0.00,WeatherDisplay:10.37,2013-03-01 06:46:00,
2013-02-28 22:51:00,52.8,51.7,30.32,SSW,200,4.6,4.6,96,0.00,CLR,,0.00,WeatherDisplay:10.37,2013-03-01 06:51:00,
2013-02-28 22:56:00,52.8,52.0,30.32,South,189,5.8,5.8,97,0.00,CLR,,0.00,WeatherDisplay:10.37,2013-03-01 06:56:00,
2013-02-28 23:01:00,52.8,52.0,30.32,SSW,196,5.8,5.8,97,0.00,CLR,,0.00,WeatherDisplay:10.37,2013-03-01 07:01:00,
2013-02-28 23:06:00,52.9,52.1,30.32,South,186,7.0,7.0,97,0.00,CLR,,0.00,WeatherDisplay:10.37,2013-03-01 07:06:00,
2013-02-28 23:11:00,53.1,52.0,30.32,SE,141,4.6,4.6,96,0.00,CLR,,0.00,WeatherDisplay:10.37,2013-03-01 07:11:00,
2013-02-28 23:16:00,53.1,52.0,30.32,South,172,5.8,5.8,96,0.00,CLR,,0.00,WeatherDisplay:10.37,2013-03-01 07:16:00,
2013-02-28 23:21:00,53.1,52.0,30.32,South,185,8.1,8.1,96,0.00,CLR,,0.00,WeatherDisplay:10.37,2013-03-01 07:21:00,
2013-02-28 23:26:00,53.0,51.9,30.32,SSW,213,5.8,5.8,96,0.00,CLR,,0.00,WeatherDisplay:10.37,2013-03-01 07:26:00,
2013-02-28 23:31:00,53.1,52.0,30.32,SW,223,2.3,2.3,96,0.00,CLR,,0.00,WeatherDisplay:10.37,2013-03-01 07:31:00,
2013-02-28 23:36:00,53.1,52.0,30.32,SSW,208,4.6,4.6,96,0.00,CLR,,0.00,WeatherDisplay:10.37,2013-03-01 07:36:00,
2013-02-28 23:41:00,53.0,51.9,30.32,SW,232,6.9,6.9,96,0.00,CLR,,0.00,WeatherDisplay:10.37,2013-03-01 07:41:00,
2013-02-28 23:46:00,53.1,52.0,30.32,SSW,196,4.6,4.6,96,0.00,CLR,,0.00,WeatherDisplay:10.37,2013-03-01 07:46:00,
2013-02-28 23:51:00,53.3,52.2,30.32,SSW,209,6.9,6.9,96,0.00,CLR,,0.00,WeatherDisplay:10.37,2013-03-01 07:51:00,
2013-02-28 23:56:00,53.5,52.4,30.32,SSW,193,3.5,3.5,96,0.00,CLR,,0.00,WeatherDisplay:10.37,2013-03-01 07:56:00,